カタログに戻る

STARLINK-34907

運用中通信VLEO
NORAD 65213·PAYLOAD·🇺🇸 United States

打ち上げ Aug 14, 2025 から Cape Canaveral Space Force Station

Loading…

次のパス (今後24時間)

TLE

最新Source: CelesTrak SupGP

元期: Sep 14, 2026, 14:47 UTC

1 65213C 25176R   26257.61645833 -.00014963  00000+0 -44224-3 0  2576
2 65213  53.1603 351.4464 0001291  69.9984 110.6479 15.34386873    19

AllMySatでSTARLINK-34907をリアルタイム追跡

Download on the App Store